Regional Weather Roundup
Issued by NWS

Home | Current Version | Previous Version | Text Only | Print | Product List | Glossary On
Versions: 1 2 3 4 5 6 7 8 9 10 11 12 13 14 15 16 17 18 19 20 21 22 23 24 25 26 27 28 29 30 31 32 33 34 35 36 37 38 39 40 41 42 43 44 45 46 47 48 49 50
000
ASUS43 KMKX 202300
RWRWI

WISCONSIN REGIONAL WEATHER ROUNDUP
NATIONAL WEATHER SERVICE MILWAUKEE/SULLIVAN WI
600 PM CDT MON APR 20 2015

NOTE: "FAIR" INDICATES FEW OR NO CLOUDS BELOW 12,000 FEET WITH NO
SIGNIFICANT WEATHER AND/OR OBSTRUCTIONS TO VISIBILITY.

WIZ001-002-006>008-014>016-023>028-210000-
NORTHWEST WISCONSIN

CITY           SKY/WX    TMP DP  RH WIND       PRES   REMARKS
SUPERIOR ARPT  CLOUDY    38  28  66 NW20G28   29.41R WCI  28
ASHLAND        CLOUDY    38  28  67 W12G23    29.38R WCI  30
HAYWARD        CLOUDY    38  26  62 W8G18     29.40R WCI  32
SIREN          CLOUDY    38  25  59 NW18G26   29.45S WCI  29
CUMBERLAND     CLOUDY    36  27  69 W18G31    29.44R WCI  25
RICE LAKE      CLOUDY    39  28  63 W16G23    29.46R WCI  30
CHETEK         CLOUDY    39  28  63 W14G23    29.44R WCI  31
LADYSMITH      CLOUDY    40  31  70 W13G23    29.42R WCI  32
EAU CLAIRE     CLOUDY    41  25  53 W17G30    29.46S
MENOMONIE      CLOUDY    41  27  57 W16G29    29.48R
NEW RICHMOND   CLOUDY    39  25  57 NW24      29.49R WCI  28
OSCEOLA        CLOUDY    40  26  56 W20G28    29.51F WCI  31
$$

WIZ003>005-009-010-017-018-210000-
NORTH CENTRAL WISCONSIN

CITY           SKY/WX    TMP DP  RH WIND       PRES   REMARKS
MANITOWISH WTR CLOUDY    36  31  83 W13       29.33R WCI  27
ARBOR VITAE    CLOUDY    37  31  82 W8        29.33R WCI  30
WOODRUFF       CLOUDY    37  31  82 W8        29.33R WCI  30
RHINELANDER    CLOUDY    36  30  79 W14       29.35R WCI  27
EAGLE RIVER    CLOUDY    35  30  81 W12G22    29.31R WCI  27
LAND O LAKES   CLOUDY    36  33  88 W7G16     29.31R WCI  30
PHILLIPS       CLOUDY    37  29  75 W7G17     29.36R WCI  31
TOMAHAWK       CLOUDY    36  29  77 W12G21    29.37R WCI  28
MEDFORD        CLOUDY    37  30  76 W12G20    29.40R WCI  29
MERRILL        CLOUDY    37  31  78 W12G21    29.39R WCI  30
$$

WIZ029-030-035-036-043>047-210000-
CENTRAL WISCONSIN

CITY           SKY/WX    TMP DP  RH WIND       PRES   REMARKS
WAUSAU         CLOUDY    38  30  73 W18G26    29.39R WCI  28
MOSINEE        CLOUDY    37  32  81 W18       29.42R WCI  27
MARSHFIELD     CLOUDY    39  29  67 W15G22    29.43R WCI  31
STEVENS POINT  CLOUDY    38  30  73 W10G21    29.43R WCI  30
WAUPACA        CLOUDY    43  33  69 W13G20    29.43R
WAUTOMA        NOT AVBL
WISC RAPIDS    CLOUDY    40  28  62 W15G23    29.46R WCI  32
CAMP DOUGLAS   NOT AVBL
$$

WIZ011>013-019>022-031-037>040-048>050-210000-
NORTHEAST WISCONSIN

CITY           SKY/WX    TMP DP  RH WIND       PRES   REMARKS
ANTIGO         CLOUDY    35  33  93 W18G31    29.36R FOG     WCI  24
SHAWANO        CLOUDY    43  35  72 W16G24    29.38R
OCONTO         CLOUDY    43  38  82 W16G25    29.35R
STURGEON BAY   CLOUDY    39  36  87 W9        29.38R WCI  33
GREEN BAY      CLOUDY    43  34  70 W25       29.40R
MANITOWOC      NOT AVBL
APPLETON       CLOUDY    39  34  81 W20G28    29.42R WCI  30
CLINTONVILLE   CLOUDY    41  32  70 W14G22    29.39R
OSHKOSH        CLOUDY    42  33  70 W13G22    29.43R
$$

WIZ032>034-041-042-053>061-210000-
SOUTHWEST WISCONSIN

CITY           SKY/WX    TMP DP  RH WIND       PRES   REMARKS
LA CROSSE      CLOUDY    45  29  53 W18G29    29.52R
SPARTA         CLOUDY    41  28  59 W13G21    29.51R
VIROQUA        CLOUDY    40  31  68 W13G21    29.51R WCI  33
BOSCOBEL       CLOUDY    46  30  53 W12       29.55R
PRAIRIE DU CHI CLOUDY    45  30  55 W20G33    29.56R
PLATTEVILLE    CLOUDY    44  32  64 W21G29    29.57R
$$

WIZ056-057-062-063-064-067-068-210000-
SOUTH CENTRAL WISCONSIN

CITY           SKY/WX    TMP DP  RH WIND       PRES   REMARKS
REEDSBURG      CLOUDY    41  30  66 W16G26    29.50R
BARABOO/DELLS  CLOUDY    41  31  67 W20G28    29.50R
LONE ROCK      NOT AVBL
MINERAL POINT  CLOUDY    45  32  61 W14G32    29.53R
MADISON        CLOUDY    43  30  60 W12G29    29.50R
MIDDLETON      CLOUDY    44  30  58 W21G28    29.51R
WATERTOWN      CLOUDY    42  33  69 W13       29.49R
MONROE         CLOUDY    43  32  65 W30G38    29.54R
JANESVILLE     CLOUDY    46  30  53 W23G32    29.52R
$$

WIZ051-052-058>065-066-070>072-210000-
SOUTHEAST WISCONSIN

CITY           SKY/WX    TMP DP  RH WIND       PRES   REMARKS
MILWAUKEE      CLOUDY    44  32  62 W20G31    29.49R
WAUKESHA       CLOUDY    41  30  65 W17G29    29.50R
MILWAUKEE/TIMM NOT AVBL
RACINE         CLOUDY    44  32  62 W20G29    29.51R
BURLINGTON     CLOUDY    41  33  74 W16G22    29.51R
KENOSHA        PTSUNNY   44  34  67 W15G28    29.51R
FOND DU LAC    CLOUDY    42  32  67 W13G22    29.45R
SHEBOYGAN      CLOUDY    42  35  76 W21G29    29.43R
WEST BEND      CLOUDY    41  32  70 W18G28    29.46R
JUNEAU         CLOUDY    41  32  70 W16G25    29.49R
$$

LSZ147-162-210000-
LAKE SUPERIOR

STATION/POSITION TIME  TEMP    WIND        PRES    WAVE
                       AIR SEA DIR/SP/G            HT/PER
                 (UTC) (F)     (DEG/KT/KT) (MB)    (FT/S)
DEVILS ISLAND    2200   36     270/ 23/ 26  993.6R
PORT WING        2200   37     260/ 15/ 21  995.3R
SAXON HARBOR     2200   40     290/ 11/ 24  993.9R
$$

LMZ867-665-643>646-210000-
LAKE MICHIGAN

STATION/POSITION TIME  TEMP    WIND        PRES    WAVE
                       AIR SEA DIR/SP/G            HT/PER
                 (UTC) (F)     (DEG/KT/KT) (MB)    (FT/S)
CHAMBERS ISLAND  2200   38     230/  7/ 14  993.2R
NORTHPORT PIER   2200   38     280/ 10/ 19  992.9R
SISTER BAY       2202   38     290/ 20/ 22   N/A
KEWAUNEE LAKESHO 2200   43     280/  9/ 20  993.5R
SHEBOYGAN LAKESH 2200   43     260/ 16/ 20  996.3R
PORT WASHINGTON  2207   45     260/  9/ 25  997.3R
MILWAUKEE LAKESH 2200   45     270/ 19/ 25   N/A
KENOSHA   LAKESH 2200   45     250/ 22/ 32  999.3R
$$

TC  - TEMPERATURE IN CELSIUS
VSB - VISIBILITY IN STATUTE MILES
WCI - WIND CHILL INDEX
HX  - HEAT INDEX



USA.gov is the U.S. government's official web portal to all federal, state and local government web resources and services.